Location: Unspecified
(0.0000°N, 0.0000°E)
Time: 13:24:20
(UTC+00:00)

Hubble Space Telescope - Pass Details

Date: 23 May 2022
Orbit: 533 x 537 km, 28.5° (Epoch: 19 May)

Event Time Altitude Azimuth Distance (km) Brightness Sun altitude
Rises 19:12:35 0° 277° (W) 2,657 5.8 -17.7°
Reaches altitude 10° 19:15:11 10° 262° (W) 1,770 4.3 -18.3°
Maximum altitude 19:18:28 23° 209° (SSW) 1,157 2.5 -19.0°
Enters shadow 19:19:47 20° 181° (S) 1,277 2.5 -19.3°
